User: anonymous   Login
Location: Newark
(41.7300°N, 13.7500°E)
Time: 16:38:49
(UTC+00:00)
Language:

PCSat - Orbit

View from above orbital plane
View from above orbital plane
View from above satellite
View from above satellite

Ground track
Ground track

The orbit data is extracted from the following two-line orbital elements,

1 26931U 01043C   20333.67268720 -.00000018  00000-0  25036-4 0  9998
2 26931  67.0521  78.6019 0007116 274.7122  85.3167 14.30596474   637
Epoch (UTC): 28 November 2020 16:08:40
Eccentricity: 0.0007116
inclination: 67.0521°
perigee height: 784 km
apogee height: 795 km
right ascension of ascending node: 78.6019°
argument of perigee: 274.7122°
revolutions per day: 14.30596474
mean anomaly at epoch: 85.3167°
orbit number at epoch: 63

The dashed part of the orbit path shows where the satellite is in the earth's shadow,  

DLR